Location: Coupvray
(48.8929°N, 2.7967°E)
Time: 10:51:56
(UTC+00:00)

Altair 2 - Pass Details

Date: 18 January 2021
Orbit: 837 x 949 km, 90.2° (Epoch: 26 February)

Event Time Altitude Azimuth Distance (km) Brightness Sun altitude
Rises 17:38:46 0° 154° (SSE) 3,403 10.8 -12.0°
Reaches altitude 10° 17:41:15 10° 148° (SSE) 2,462 10.0 -12.3°
Maximum altitude 17:46:23 42° 79° (E) 1,186 8.0 -13.1°
Drops below altitude 10° 17:51:31 10° 10° (N) 2,464 9.9 -14.0°
Sets 17:54:01 0° 4° (N) 3,406 10.7 -14.4°
